Location: Salillas
(41.9950°N, 0.2228°W)
Time: 18:43:47
(UTC+00:00)

STARLINK-1092 - Pass Details

Date: 29 March 2020
Orbit: 548 x 551 km, 53.0° (Epoch: 31 May)

Event Time Altitude Azimuth Distance (km) Brightness Sun altitude
Rises 19:33:41 0° 301° (WNW) 2,727 8.9 -13.5°
Reaches altitude 10° 19:36:03 10° 292° (WNW) 1,829 7.7 -14.0°
Maximum altitude 19:39:51 35° 226° (SW) 896 4.9 -14.6°
Enters shadow 19:43:09 13° 163° (SSE) 1,651 5.7 -15.2°
